Location: Unspecified
(48.5670°N, 0.0000°E)
Time: 11:45:21
(UTC+00:00)

Altair - Pass Details

Date: 26 August 2019
Orbit: 1501 x 1683 km, 47.2° (Epoch: 19 September)

Event Time Altitude Azimuth Distance (km) Brightness Sun altitude
Exits shadow 01:42:42 38° 171° (S) 2,305 8.0 -26.8°
Maximum altitude 01:44:49 42° 143° (SE) 2,165 8.0 -26.7°
Drops below altitude 10° 01:53:35 10° 77° (ENE) 3,770 10.1 -26.0°
Sets 01:56:48 0° 71° (ENE) 4,732 10.8 -25.7°
